Regional Weather Roundup
Issued by NWS

Home | Current Version | Previous Version | Text Only | Print | Product List | Glossary Off
Versions: 1 2 3 4 5 6 7 8 9 10 11 12 13 14 15 16 17 18 19 20 21 22 23 24 25 26 27 28 29 30 31 32 33 34 35 36 37 38 39 40 41 42 43 44 45 46 47 48 49 50

000
ASUS45 KABQ 300010
RWRNM
NEW MEXICO REGIONAL WEATHER ROUNDUP
NATIONAL WEATHER SERVICE ALBUQUERQUE NM
600 PM MDT SUN MAY 29 2016

NOTE: "FAIR" MEANS FEW OR NO CLOUDS BELOW 12,000 FEET AGL WITH NO
       SIGNIFICANT WEATHER OR OBSTRUCTIONS TO VISION.

      THIS PRODUCT IS RELEASED AS TWO VERSIONS.  ONE VERSION NEAR
      THE TOP OF THE HOUR CONTAINING PRELIMINARY DATA FROM ALBUQUERQUE
      AND OTHER STATIONS.  A FINAL VERSION WITH ADDITIONAL DATA IS
      ISSUED ABOUT 10 MINUTES AFTER THE HOUR.

NMZ501-503-504-510>518-300100-
NORTHWEST PLATEAU/NORTHCENTRAL MOUNTAINS

CITY           SKY/WX    TMP DP  RH WIND       PRES   REMARKS
FARMINGTON     FAIR      81  14   8 VRB7      30.01F
6HR MIN TEMP:  76; 6HR MAX TEMP:  85;

LOS ALAMOS     FAIR      75  10   8 S14G21    30.15F
SANTA FE       FAIR      80   7   6 SW12G22   30.09S
6HR MIN TEMP:  76; 6HR MAX TEMP:  85;

TAOS           FAIR      75  16  10 W16       30.14F
ANGEL FIRE     FAIR      62  30  29 S21       30.23F

$$
NMZ402-403-502-505>509-300100-
WESTCENTRAL MOUNTAINS/SOUTHWEST MOUNTAINS

CITY           SKY/WX    TMP DP  RH WIND       PRES   REMARKS
GALLUP         FAIR      77   8   7 SW8G28    30.10F
6HR MIN TEMP:  73; 6HR MAX TEMP:  80;

GRANTS         FAIR      80   9   6 CALM      30.11F
SILVER CITY      N/A     82  27  13 SW9G23    30.08F

$$
NMZ407-409-411-412-300100-
SOUTHERN DESERTS

CITY           SKY/WX    TMP DP  RH WIND       PRES   REMARKS
LORDSBURG      FAIR      86  28  12 SW9       29.98F
DEMING         FAIR      88  31  13 S12       30.00F
6HR MIN TEMP:  84; 6HR MAX TEMP:  91;

LAS CRUCES     FAIR      89  19   7 S9        30.01F
HOLLOMAN AFB   FAIR      90  21   8 SW12      29.97F
ALAMOGORDO     FAIR      88  23   9 S8        29.99F
T OR C         FAIR      87  13   6 SW16G24   30.00F
6HR MIN TEMP:  82; 6HR MAX TEMP:  89;


$$
NMZ519>523-300100-
CENTRAL VALLEYS/CENTRAL HIGHLANDS

CITY           SKY/WX    TMP DP  RH WIND       PRES   REMARKS
ALBUQUERQUE    FAIR      84  15   7 S17       30.02F
6HR MIN TEMP:  80; 6HR MAX TEMP:  86;

DOUBLE EAGLE   MOSUNNY   82  12   7 SW13G26   30.06F
MORIARTY ARPT  FAIR      81  11   7 SW14G25   30.10F
6HR MIN TEMP:  77; 6HR MAX TEMP:  83;

CLINES CORNERS FAIR      76  16  10 SW25G31   30.14F
6HR MIN TEMP:  71; 6HR MAX TEMP:  78;

BELEN          FAIR      85  17   8 S14G24    30.01F
6HR MIN TEMP:  80; 6HR MAX TEMP:  86;

SOCORRO        FAIR      85  19   8 S18G26    29.99F
6HR MIN TEMP:  83; 6HR MAX TEMP:  89;


$$
NMZ524>526-539-540-300100-
SOUTHCENTRAL MOUNTAINS

CITY           SKY/WX    TMP DP  RH WIND       PRES   REMARKS
RUIDOSO        FAIR      72  37  28 SE18G25   30.20S

$$
NMZ527>531-300100-
NORTHEAST HIGHLANDS/NORTHEAST PLAINS

CITY           SKY/WX    TMP DP  RH WIND       PRES   REMARKS
LAS VEGAS      FAIR      72  29  20 S15       30.13F
6HR MIN TEMP:  67; 6HR MAX TEMP:  75;

RATON          FAIR      74  28  18 SW15      30.09F
6HR MIN TEMP:  60; 6HR MAX TEMP:  76; 6HR PCP: TRACE;

CLAYTON        LGT RAIN  58  52  80 E30G38    30.12F
6HR MIN TEMP:  58; 6HR MAX TEMP:  82; 6HR PCP:  0.28;


$$
NMZ532>537-300100-
EASTCENTRAL PLAINS

CITY           SKY/WX    TMP DP  RH WIND       PRES   REMARKS
TUCUMCARI      LGT RAIN  70  50  49 W12       30.06R
6HR MIN TEMP:  59; 6HR MAX TEMP:  78; 6HR PCP:  0.12;

CANNON AFB     CLOUDY    67  47  49 S10       30.09R
6HR MIN TEMP:  67; 6HR MAX TEMP:  80; 6HR PCP: TRACE;

CLOVIS AIRPORT FAIR      59  50  72 E18G30    30.14R

$$
NMZ028-029-538-300100-
SOUTHEAST PLAINS

CITY           SKY/WX    TMP DP  RH WIND       PRES   REMARKS
ROSWELL        FAIR      84  42  22 S18       29.99F
6HR MIN TEMP:  80; 6HR MAX TEMP:  91;

ARTESIA        FAIR      82  48  30 S23G30    29.99F
CARLSBAD       FAIR      82  54  37 SE17G26   29.97F
6HR MIN TEMP:  73; 6HR MAX TEMP:  88; 6HR PCP:  0.08;

HOBBS          LGT RAIN  63  57  82 W20       30.09R


$$



USA.gov is the U.S. government's official web portal to all federal, state and local government web resources and services.